CAPE
0 1 0 0 0 0 0 0 0 0 0 0 0 0 0 0 0 0 0 0 0 0 0 0 0 0 0 0 0 0 0 0 2 0 0 0 0 0 0 0 0 0 0
2 0 0 0 0 0 0 0 0 0 0 0 0 0 0 0 0 0 0 0 0 0 0 0 0 0 0 0 1 0 0 0 0 0 0 0 0 0 0 0 0 0 0
0 0 0 0 0 0 0 0 0 0 0 0 0 0 0 0 0 0 0 0 0 0 0 0 0 0 0 0 0 0 0 0 0 0 0 0 0 0 0 0 0 0 0
0 0 0 0 0 0 0 0 0 0 0 0 0 0 0 0 0 0 0 0 0 0 0 0 0 0 1 0 0 0 0 0 0 1 1 0 0 0 0 0 0 0 0
0 0 0 0 0 0 0 0 0 0 0 0 0 0 0 0 0 0 0 0 0 0 0 0 0 0 4 1 0 0 0 0 1 1 1 2 1 1 2 1 0 0 1
0 0 0 0 0 0 0 0 0 0 0 0 0 0 0 0 0 0 0 0 0 0 0 0 0 0 0 0 0 0 0 1 0 3 2 3 2 3 2 2 2 2 2
0 0 0 0 0 0 0 0 0 0 0 0 0 0 0 0 0 0 0 0 0 0 0 0 0 0 0 0 0 0 0 0 2 2 3 3 3 2 3 1 2 3 3
0 0 0 0 0 0 0 0 0 0 0 0 0 0 0 0 0 0 0 0 0 0 0 0 0 0 0 0 0 0 0 0 0 1 1 1 1 1 1 2 1 1 1
0 0 0 0 0 0 0 0 0 0 0 0 0 0 0 0 0 0 0 0 0 0 0 0 0 0 0 0 0 0 0 0 0 1 0 0 0 0 0 0 0 1 2
0 0 0 0 0 0 0 0 0 0 0 0 0 0 0 0 0 0 0 0 0 0 0 0 0 0 0 0 0 1 0 1 1 1 1 0 1 1 1 4 0 1 1
0 0 0 0 0 0 0 0 0 0 0 0 0 0 0 0 0 0 0 0 1 1 0 0 0 0 0 0 0 1 1 0 1 1 1 1 2 3 2 1 3 2 1
0 0 0 0 0 0 0 0 0 0 0 0 0 0 0 0 0 0 0 0 1 2 0 0 0 0 0 0 0 0 1 0 1 2 3 3 3 3 2 2 1 2 1
0 0 0 0 0 0 0 0 0 0 0 0 0 0 0 0 0 0 0 0 0 0 0 0 0 0 0 0 0 0 0 2 2 4 4 5 3 2 3 3 1 0 2
0 0 0 0 0 0 0 0 0 0 0 0 0 0 0 0 0 0 0 0 0 0 0 0 0 0 0 0 0 1 1 1 2 3 3 3 2 3 5 3 3 1 1
0 0 0 0 0 0 0 0 0 0 0 0 0 0 0 0 0 0 0 0 0 0 0 0 0 0 0 0 1 1 1 2 3 2 3 4 6 5 5 3 3 1 1
0 0 0 0 0 0 0 0 0 0 0 0 0 0 0 0 0 0 0 0 0 0 0 1 1 1 2 1 2 3 3 4 2 2 3 4 6 7 6 3 4 2 1
0 0 0 0 0 0 0 0 0 0 0 0 0 0 0 0 0 0 0 0 0 0 0 0 1 1 1 1 1 3 5 3 1 2 2 4 6 7 7 3 4 4 2
0 0 0 0 0 0 0 0 0 0 0 0 0 0 0 0 0 0 0 0 0 0 0 0 1 2 1 0 1 3 5 4 2 2 4 5 5 6 6 6 4 3 1
0 0 0 0 0 0 0 0 0 0 0 0 0 0 0 0 0 0 0 0 0 0 1 0 0 1 0 1 1 2 3 3 1 3 4 5 5 8 8 6 5 3 0
0 0 0 0 0 0 0 0 0 0 0 0 0 0 0 0 0 0 0 0 0 0 0 0 0 0 1 1 1 2 4 3 3 3 5 5 6 7 7 4 1 0 0
0 0 0 0 0 0 0 0 0 0 0 0 0 0 0 0 0 0 0 0 0 0 0 0 0 0 1 1 2 2 1 2 1 3 4 5 6 8 7 6 2 0 1
0 0 0 0 0 0 0 0 0 0 0 0 0 0 0 0 0 0 0 0 0 0 0 0 0 0 0 1 2 1 1 2 2 2 3 4 5 7 7 4 1 1 0
0 0 0 0 0 0 0 0 0 0 0 0 0 0 0 0 0 0 0 0 0 0 0 0 0 0 2 2 2 2 1 1 1 2 3 4 5 6 6 3 0 2 1
0 0 0 0 0 0 0 0 0 0 0 0 0 0 0 0 0 0 0 0 0 0 0 0 1 1 2 1 1 1 1 1 1 3 3 3 4 4 6 3 1 2 2
0 0 0 0 0 0 0 0 0 0 0 0 0 0 0 0 0 0 0 0 0 0 0 0 0 1 1 0 1 1 1 2 2 3 3 2 3 4 5 5 2 1 0
0 0 0 0 0 0 0 0 0 0 0 0 0 0 0 0 0 0 0 0 0 0 0 0 0 0 2 1 1 0 1 2 2 2 3 3 4 4 4 6 3 3 1
CIN
0 0 0 0 0 0 0 0 0 0 0 0 0 0 0 0 0 0 0 0 0 0 0 0 0 0 0 -4 -8 -8 -4 0 -2 0 0 0 0 0 0 0 0 0 0
0 0 0 0 0 0 0 0 0 0 0 0 0 0 0 0 0 0 0 0 0 0 0 0 0 0 0 -1 -3 0 0 0 0 0 0 0 0 0 0 0 0 0 0
0 0 0 0 0 0 0 0 0 0 0 0 0 0 0 0 0 0 0 0 0 0 0 0 0 0 0 -1 -4 -3 0 0 0 0 0 0 0 0 0 0 0 0 0
0 0 0 0 0 0 0 0 0 0 0 0 0 0 0 0 0 0 0 0 0 0 0 0 0 0 -4 -1 -2 0 0 0 0 0 0 0 0 0 0 0 0 0 0
0 0 0 0 0 0 0 0 0 0 0 0 0 0 0 0 0 0 0 0 0 0 0 0 0 0 -1 -4 -4 0 0 0 0 0 0 0 0 0 0 0 0 -1 -1
0 0 0 0 0 0 0 0 0 0 0 0 0 0 0 0 0 0 0 0 0 0 0 0 0 0 0 0 0 0 0 0 0 0 0 0 0 0 0 0 0 0 0
0 0 0 0 0 0 0 0 0 0 0 0 0 0 0 0 0 0 0 0 0 0 0 0 0 0 0 0 0 0 0 0 0 0 0 0 0 0 0 0 0 0 0
0 0 0 0 0 0 0 0 0 0 0 0 0 0 0 0 0 0 0 0 0 0 0 0 0 0 0 0 0 0 0 0 0 0 0 0 0 0 0 0 0 0 0
0 0 0 0 0 0 0 0 0 0 0 0 0 0 0 0 0 0 0 0 0 0 0 0 0 0 0 0 0 0 0 0 0 0 0 0 0 0 0 0 0 0 0
0 0 0 0 0 0 0 0 0 0 0 0 0 0 0 0 0 0 0 0 0 0 0 0 0 0 0 0 0 0 0 0 0 0 0 0 0 0 0 0 -1 0 0
0 0 0 0 0 0 0 0 0 0 0 0 0 0 0 0 0 0 0 0 0 0 0 0 0 0 0 0 0 0 0 0 0 0 0 0 0 0 0 0 0 0 0
0 0 0 0 0 0 0 0 0 0 0 0 0 0 0 0 0 0 0 0 0 0 0 0 0 0 0 0 0 0 0 0 0 0 0 0 0 0 0 0 0 0 0
0 0 0 0 0 0 0 0 0 0 0 0 0 0 0 0 0 0 0 0 0 0 0 0 0 0 0 0 0 0 0 0 0 0 0 0 0 0 0 0 0 0 0
0 0 0 0 0 0 0 0 0 0 0 0 0 0 0 0 0 0 0 0 0 0 0 0 0 0 0 0 0 0 0 0 0 0 0 0 0 0 0 0 0 0 0
0 0 0 0 0 0 0 0 0 0 0 0 0 0 0 0 0 0 0 0 0 0 0 0 0 0 0 0 0 0 0 0 0 0 0 0 0 0 0 0 0 0 0
0 0 0 0 0 0 0 0 0 0 0 0 0 0 0 0 0 0 0 0 0 0 0 0 0 0 0 0 0 0 0 0 0 0 0 0 0 0 0 0 0 0 0
0 0 0 0 0 0 0 0 0 0 0 0 0 0 0 0 0 0 0 0 0 -1 0 0 0 0 0 0 0 0 0 0 0 0 0 0 0 0 0 0 0 0 0
0 0 0 0 0 0 0 0 0 0 0 0 0 0 0 0 0 0 0 0 0 0 0 0 0 0 0 0 0 0 0 0 0 0 0 0 0 0 0 0 0 0 0
0 0 0 0 0 0 0 0 0 0 0 0 0 0 0 0 0 0 0 0 0 0 0 0 0 -1 0 0 0 0 0 0 0 0 0 0 0 0 0 0 0 0 0
0 0 0 0 0 0 0 0 0 0 0 0 0 0 0 0 0 0 0 0 0 0 0 0 0 0 0 0 0 0 0 0 0 0 0 0 0 0 0 0 0 0 0
0 0 0 0 0 0 0 0 0 0 0 0 0 0 0 0 0 0 0 0 0 0 0 0 0 0 0 0 0 0 0 0 0 0 0 0 0 0 0 0 0 0 0
0 0 0 0 0 0 0 0 0 0 0 0 0 0 0 0 0 0 0 0 0 0 0 0 0 0 0 0 0 0 0 0 0 0 0 0 0 0 0 0 0 0 0
0 0 0 0 0 0 0 0 0 0 0 0 0 0 0 0 0 0 0 0 0 0 0 0 0 0 0 0 0 0 0 0 0 0 0 0 0 0 0 0 0 0 0
0 0 0 0 0 0 0 0 0 0 0 0 0 0 0 0 0 0 0 0 0 0 0 0 0 0 0 0 0 0 0 0 0 0 0 0 0 0 0 0 0 0 0
0 0 0 0 0 0 0 0 0 0 0 0 0 0 0 0 0 0 0 0 0 0 0 0 0 0 0 0 0 0 0 0 0 0 0 0 0 0 0 0 0 0 0
0 0 0 0 0 0 0 0 0 0 0 0 0 0 0 0 0 0 0 0 0 0 0 0 0 0 0 0 0 0 0 0 0 0 0 0 0 0 0 0 0 0 0
Wind_Speed
9 9 9 6 3 3 3 3 4 6 10 13 17 23 25 28 29 32 32 36 38 39 36 34 32 32 32 33 34 33 33 34 34 33 32 33 35 36 34 32 31 30 31
6 9 9 5 3 5 6 4 5 9 13 17 22 25 25 28 30 32 35 36 38 37 34 32 32 30 33 32 31 31 32 31 30 33 33 33 34 33 33 33 31 31 33
5 5 6 5 6 3 3 6 10 12 16 20 24 25 27 29 30 32 34 35 36 33 31 31 30 29 30 29 29 29 30 29 29 31 33 32 32 33 33 31 31 32 32
8 6 6 7 5 4 6 10 13 16 20 23 25 25 27 29 30 32 33 33 35 31 30 29 29 28 27 29 30 29 29 30 31 32 33 33 33 33 31 32 33 32 33
8 7 5 6 6 6 9 12 15 18 22 24 26 27 27 28 28 30 31 33 33 30 29 31 28 26 27 30 31 31 30 31 31 32 34 34 33 34 33 33 32 33 33
6 5 8 8 7 9 11 14 17 19 21 25 26 26 26 26 27 29 30 30 30 31 31 29 29 26 29 27 29 30 29 30 32 33 34 34 35 34 33 32 32 33 33
5 6 8 8 10 12 14 16 18 20 22 24 26 27 26 27 28 29 30 30 32 30 29 30 31 28 27 29 30 30 29 30 30 33 33 33 35 34 31 31 29 29 29
5 7 9 8 11 14 16 18 20 21 23 26 28 28 25 26 27 31 32 31 30 29 28 29 28 26 25 29 31 29 31 32 33 34 31 30 30 29 27 25 26 27 27
7 9 10 11 14 17 19 21 23 24 26 26 25 25 24 26 29 33 34 31 30 30 27 26 24 25 26 30 31 31 33 34 36 36 32 30 30 28 25 25 25 27 29
9 10 13 14 16 18 20 20 22 23 23 24 25 26 26 28 31 33 34 31 30 29 27 25 26 27 28 31 31 32 35 38 42 41 37 34 32 31 28 22 22 24 24
10 12 14 15 15 17 18 20 22 23 24 25 26 27 28 30 32 34 35 31 27 26 27 28 29 30 31 31 32 31 34 39 40 38 36 36 34 31 29 25 22 17 19
10 11 14 14 15 17 19 21 22 24 25 27 27 28 29 30 32 33 32 31 29 28 29 29 31 33 31 31 32 34 37 39 36 36 37 36 34 32 29 25 21 19 13
11 12 13 14 15 17 19 21 23 24 25 27 29 29 30 30 29 31 31 32 32 32 32 34 34 33 31 31 32 34 37 37 35 37 37 33 30 28 26 25 23 19 15
12 13 14 15 16 18 20 21 23 25 26 28 28 28 27 29 30 31 32 33 35 35 35 35 33 32 31 31 32 33 36 36 36 35 32 27 26 28 27 25 22 19 18
12 14 15 16 17 19 21 20 23 24 26 27 27 27 29 30 31 32 34 36 37 37 34 35 34 33 33 34 34 35 37 37 37 36 28 27 26 26 25 23 18 15 16
14 15 16 17 18 19 20 21 22 23 26 28 29 28 28 30 33 35 36 36 37 38 35 36 35 34 34 35 35 36 37 38 38 28 26 25 23 23 22 17 13 13 10
14 16 17 18 19 20 21 22 23 24 27 31 31 32 33 33 35 36 36 36 36 35 36 36 35 35 35 34 34 35 37 37 11 18 21 23 20 19 18 10 12 10 9
15 16 17 18 19 20 22 23 25 28 29 32 32 34 34 34 35 36 36 34 36 35 34 36 35 34 33 31 30 30 37 27 12 9 17 18 17 16 10 8 8 7 8
15 16 16 17 19 21 23 24 25 27 29 31 33 34 35 34 35 36 36 36 36 36 35 36 33 33 32 28 26 30 32 13 12 9 14 12 12 12 6 7 6 6 11
15 15 16 16 19 21 23 24 26 27 29 31 33 34 34 34 35 35 35 35 35 35 35 32 34 33 29 25 25 27 21 19 16 9 10 7 9 7 5 4 4 6 14
16 17 17 18 19 21 22 24 25 27 29 30 31 31 33 33 34 34 34 35 35 34 34 31 34 32 28 24 25 24 20 15 15 9 8 4 6 5 3 2 2 9 13
16 17 18 19 20 21 22 23 25 26 28 29 29 30 32 32 32 33 34 34 34 33 29 31 34 31 28 24 24 22 20 17 17 13 13 7 5 5 2 2 0 5 8
16 17 18 19 20 21 22 23 24 25 26 27 28 29 30 31 32 33 33 33 33 30 29 31 31 31 28 25 25 23 20 18 17 15 14 9 3 4 2 3 2 3 6
16 16 17 19 20 21 21 22 23 24 24 25 27 28 29 30 31 32 32 31 32 27 29 31 29 29 29 26 26 24 22 20 18 18 14 11 8 6 2 3 0 4 7
16 16 17 18 19 20 20 21 21 23 23 24 26 27 28 29 30 31 31 31 31 28 27 28 28 26 29 26 28 27 25 24 22 22 17 14 14 14 11 8 8 3 2
16 16 17 18 18 19 19 20 20 21 22 23 24 26 27 28 29 30 31 32 30 30 28 27 25 24 28 27 28 29 28 26 25 23 21 19 18 17 13 10 11 12 9
Wind_Direction
128 126 122 131 174 202 145 89 25 0 351 350 348 345 347 346 345 346 345 345 343 343 346 346 347 347 347 345 344 343 342 341 339 341 344 344 342 340 342 344 344 342 334
127 123 113 115 153 112 94 20 1 353 349 344 344 346 346 345 345 345 344 344 342 343 347 347 348 349 348 346 347 346 345 346 345 342 343 343 342 343 342 342 343 340 335
136 115 93 83 94 87 33 344 342 344 341 343 344 341 342 343 345 346 343 341 343 347 349 348 349 350 350 351 351 350 348 345 344 341 340 342 341 342 342 341 340 335 334
118 103 87 77 76 43 346 337 337 341 339 339 338 342 343 345 344 343 342 344 346 350 350 352 353 352 352 353 351 349 348 344 342 340 339 340 340 341 341 340 337 337 333
105 93 71 56 41 18 350 343 339 338 337 338 337 341 342 342 343 343 345 346 348 350 352 352 352 353 353 352 351 349 348 346 345 342 340 339 339 339 338 338 336 335 334
98 62 54 54 31 352 349 347 339 338 342 337 338 342 342 345 345 347 348 349 352 352 350 352 352 353 352 353 351 348 348 347 345 342 339 338 338 337 337 338 336 335 335
71 61 53 25 2 344 347 345 341 343 340 338 340 338 340 345 346 347 348 350 349 352 351 350 350 352 352 350 349 351 351 351 349 344 342 341 338 338 339 338 337 335 332
19 11 355 3 1 344 347 344 345 344 339 337 337 337 345 348 349 344 347 350 350 352 352 352 352 353 354 351 350 352 353 354 353 347 346 344 343 343 341 338 335 333 332
14 349 345 358 348 345 340 339 335 338 335 340 344 347 350 349 346 345 346 349 354 356 356 355 355 353 353 351 350 352 352 354 351 350 350 348 347 346 344 342 340 336 333
2 347 341 351 346 344 344 347 345 343 344 346 347 349 349 345 344 346 346 352 354 355 355 355 354 353 351 350 351 352 351 349 344 344 351 351 351 348 347 344 343 341 341
347 342 342 347 350 354 351 347 344 345 345 346 345 345 346 346 345 347 349 354 355 354 354 353 353 352 349 349 351 354 352 346 345 351 353 353 355 356 355 354 352 349 346
343 346 351 350 347 351 352 352 354 353 351 349 350 349 351 351 353 353 356 0 1 357 354 354 352 350 350 349 351 351 348 346 355 356 355 355 0 3 5 4 4 1 359
21 350 358 355 350 354 359 358 358 357 356 353 353 354 355 360 3 2 0 358 358 357 356 352 351 351 351 351 351 351 348 350 359 358 355 2 6 8 10 10 10 12 15
13 6 3 4 5 2 4 6 5 3 360 358 359 2 4 4 5 5 4 3 360 357 357 357 357 355 354 353 352 351 348 355 359 0 3 9 11 12 14 16 17 20 21
22 20 16 15 16 13 11 17 14 10 8 7 9 9 5 4 4 3 2 2 1 2 3 3 359 357 354 350 348 341 346 357 3 1 9 11 13 15 14 16 24 31 36
29 27 24 19 18 17 16 15 14 16 15 13 12 11 10 7 3 2 3 4 5 6 6 3 359 357 350 344 335 329 349 358 2 17 18 17 18 19 22 25 35 45 64
20 17 16 13 11 11 12 16 15 17 15 12 11 9 7 6 5 4 4 6 7 6 6 2 358 351 350 333 330 333 347 3 330 24 26 24 26 26 25 36 49 69 104
12 13 14 15 17 20 18 15 13 10 10 9 11 9 8 9 9 9 9 11 6 6 8 358 347 341 336 327 323 322 338 344 323 331 30 33 36 37 28 38 59 95 124
4 5 11 19 18 16 14 14 15 14 12 11 10 10 9 11 12 12 10 10 7 6 356 354 339 341 333 323 317 326 330 314 322 329 28 38 46 48 13 40 64 88 120
13 18 21 24 20 15 16 16 14 14 14 12 10 10 11 14 13 11 10 9 8 5 355 341 344 340 330 320 321 324 315 317 322 349 21 37 53 59 42 25 55 87 107
25 25 25 29 21 16 17 17 16 15 13 12 13 15 16 16 14 13 11 8 7 356 351 341 349 342 333 324 326 322 318 321 325 344 341 1 45 55 40 30 85 111 118
29 29 26 23 21 19 17 15 15 15 14 14 17 18 16 18 18 16 13 7 5 357 342 345 353 345 339 328 325 322 320 323 326 327 321 325 46 58 33 326 315 129 149
30 26 23 18 17 18 15 15 15 17 19 21 20 19 20 19 19 17 14 5 1 351 344 350 349 349 341 333 329 323 319 321 321 323 318 318 342 61 48 310 298 154 165
24 23 20 18 17 17 17 17 21 23 25 23 20 21 20 19 17 15 13 0 360 343 346 351 346 346 343 338 334 329 323 320 321 324 319 312 314 316 35 307 45 140 134
18 19 18 17 17 17 19 23 26 25 24 23 22 19 19 18 16 14 8 0 354 344 340 342 341 338 342 338 338 335 331 329 328 331 327 324 322 327 322 322 329 281 226
18 20 20 20 22 25 25 24 23 20 19 19 17 17 15 14 15 14 10 1 348 344 339 336 332 332 338 338 338 339 337 336 334 332 333 333 333 334 329 327 334 334 323